User: anonymous   Login
Location: Unspecified
(0.0000°N, 0.0000°E)
Time: 10:50:50
(UTC+00:00)
Language:

STARLINK-36038 - Orbit

View from above orbital plane
View from above orbital plane
View from above satellite
View from above satellite

Ground track
Ground track

The orbit is defined by the following mean orbital elements,

1 66804U          26145.40386215 +.00000000 +00000-0 +52969-3 0 00008
2 66804  42.9969  40.9468 0001631 277.7535  82.3131 15.27589930    00
Epoch (UTC): 25 May 2026 09:41:33
Eccentricity: 0.0001631
inclination: 42.9969°
perigee height: 482 km
apogee height: 484 km
right ascension of ascending node: 40.9468°
argument of perigee: 277.7535°
revolutions per day: 15.27589930
mean anomaly at epoch: 82.3131°

The dashed part of the orbit path shows where the satellite is in the earth's shadow,  

DLR